FW2460 Weather Reports


time (UTC)temp
C
wind
direction
speed
KPH
gust
KPH
rain 1hr
cm
rain 24hr
cm
rain mn
cm
humidity
%
barometer
mb
20260906213059 33 157 22.5 37.0 0.00 0.00 0.00 22 1009.5
20260906211557 33 135 22.5 38.6 0.00 0.00 0.00 21 1009.8
20260906210104 33 117 30.6 53.1 0.00 0.00 0.00 21 1009.9
20260906204600 33 157 29.0 40.2 0.00 0.00 0.00 21 1010.2
20260906203051 33 155 29.0 45.1 0.00 0.00 0.00 22 1010.3
20260906201551 33 184 14.5 45.1 0.00 0.00 0.00 21 1010.3
20260906200047 33 166 16.1 41.8 0.00 0.00 0.00 20 1010.5
20260906194601 33 151 22.5 45.1 0.00 0.00 0.00 19 1010.7
20260906193044 33 132 29.0 45.1 0.00 0.00 0.00 19 1011.1
20260906191545 33 170 22.5 35.4 0.00 0.00 0.00 20 1011.1
20260906190040 33 163 19.3 37.0 0.00 0.00 0.00 21 1011.2
20260906184539 32 143 25.7 40.2 0.00 0.00 0.00 23 1011.3
20260906183056 32 146 27.4 40.2 0.00 0.00 0.00 23 1012.0
20260906181542 32 157 16.1 48.3 0.00 0.00 0.00 23 1012.1
20260906180050 32 115 16.1 33.8 0.00 0.00 0.00 23 1012.1
20260906174530 32 192 14.5 30.6 0.00 0.00 0.00 24 1012.3
20260906173029 32 125 29.0 40.2 0.00 0.00 0.00 26 1012.4
20260906171527 31 181 22.5 40.2 0.00 0.00 0.00 26 1012.4
20260906170024 31 155 14.5 27.4 0.00 0.00 0.00 28 1012.6
20260906164521 31 163 17.7 51.5 0.00 0.00 0.00 28 1012.7
20260906163019 30 203 6.4 27.4 0.00 0.00 0.00 30 1013.0
20260906161535 30 14 6.4 30.6 0.00 0.00 0.00 31 1012.8
20260906160016 30 216 8.0 19.3 0.00 0.00 0.00 33 1012.7
20260906154513 29 248 6.4 19.3 0.00 0.00 0.00 35 1012.7
20260906153011 29 238 11.3 20.9 0.00 0.00 0.00 36 1012.5
20260906151508 28 238 12.9 17.7 0.00 0.00 0.00 37 1012.5
20260906150003 28 195 8.0 16.1 0.00 0.00 0.00 39 1012.5
20260906144600 27 215 9.7 19.3 0.00 0.00 0.00 41 1012.4
20260906143058 27 205 12.9 17.7 0.00 0.00 0.00 41 1012.5
20260906141617 26 251 11.3 20.9 0.00 0.00 0.00 42 1012.4
20260906140055 26 202 14.5 17.7 0.00 0.00 0.00 44 1012.2
20260906134553 25 197 9.7 14.5 0.00 0.00 0.00 45 1012.2
20260906133058 23 209 9.7 14.5 0.00 0.00 0.00 47 1012.0
20260906131601 23 189 11.3 16.1 0.00 0.00 0.00 48 1011.9
20260906130055 22 190 11.3 14.5 0.00 0.00 0.00 49 1011.8
20260906124546 22 195 9.7 12.9 0.00 0.00 0.00 50 1011.5
20260906123044 22 197 9.7 12.9 0.00 0.00 0.00 49 1011.3
20260906121542 22 181 9.7 12.9 0.00 0.00 0.00 48 1011.3
20260906120041 22 179 12.9 16.1 0.00 0.00 0.00 48 1011.3
20260906114546 22 203 9.7 14.5 0.00 0.00 0.00 48 1011.3
20260906113035 22 181 11.3 16.1 0.00 0.00 0.00 46 1011.2
20260906111541 22 188 11.3 14.5 0.00 0.00 0.00 46 1011.2
20260906110030 22 189 11.3 14.5 0.00 0.00 0.00 46 1011.1
20260906104532 23 182 11.3 14.5 0.00 0.00 0.00 46 1010.9
20260906103026 23 190 14.5 16.1 0.00 0.00 0.00 45 1010.7
20260906101529 23 184 12.9 16.1 0.00 0.00 0.00 44 1010.7
20260906100029 23 187 11.3 16.1 0.00 0.00 0.00 43 1010.9
20260906094518 24 171 11.3 16.1 0.00 0.00 0.00 43 1010.8
20260906093016 24 182 11.3 14.5 0.00 0.00 0.00 42 1010.8
20260906091513 24 200 11.3 16.1 0.00 0.00 0.00 41 1010.7
20260906090010 25 167 12.9 20.9 0.00 0.00 0.00 41 1010.6
20260906084511 25 161 14.5 17.7 0.00 0.00 0.00 40 1010.5
20260906083005 25 161 14.5 20.9 0.00 0.00 0.00 39 1010.5
20260906081502 25 170 17.7 22.5 0.00 0.00 0.00 38 1010.5
20260906080100 26 185 19.3 30.6 0.00 0.00 0.00 37 1010.6
20260906074557 26 193 20.9 35.4 0.00 0.00 0.00 37 1010.7
20260906073056 26 171 22.5 33.8 0.00 0.00 0.00 37 1010.4
20260906071554 26 178 24.1 33.8 0.00 0.00 0.00 36 1010.3
20260906070053 26 162 22.5 35.4 0.00 0.00 0.00 36 1010.3
20260906064551 26 153 25.7 35.4 0.00 0.00 0.00 36 1010.5
20260906063048 26 158 22.5 30.6 0.00 0.00 0.00 37 1010.6
20260906061549 26 161 19.3 30.6 0.00 0.00 0.00 37 1010.7
20260906060053 26 170 22.5 32.2 0.00 0.00 0.00 36 1010.8
20260906054546 26 148 22.5 30.6 0.00 0.00 0.00 36 1010.9
20260906053040 26 144 20.9 27.4 0.00 0.00 0.00 36 1010.9
20260906051539 26 139 20.9 27.4 0.00 0.00 0.00 37 1010.9
20260906050035 26 142 17.7 20.9 0.00 0.00 0.00 37 1010.9
20260906044535 27 142 17.7 20.9 0.00 0.00 0.00 36 1011.0
20260906043035 27 150 14.5 19.3 0.00 0.00 0.00 36 1011.1
20260906041535 27 153 14.5 19.3 0.00 0.00 0.00 35 1011.2
20260906040035 27 146 14.5 20.9 0.00 0.00 0.00 35 1011.0
20260906034551 27 138 17.7 22.5 0.00 0.00 0.00 34 1010.9
20260906033035 28 134 19.3 25.7 0.00 0.00 0.00 33 1011.1
20260906031534 28 139 19.3 27.4 0.00 0.00 0.00 32 1010.7
20260906030033 28 138 19.3 24.1 0.00 0.00 0.00 32 1010.6
20260906024531 28 140 17.7 20.9 0.00 0.00 0.00 32 1010.4
20260906023031 29 130 14.5 20.9 0.00 0.00 0.00 31 1010.2
20260906021538 30 128 17.7 22.5 0.00 0.00 0.00 30 1009.8
20260906020029 30 137 17.7 20.9 0.00 0.00 0.00 29 1009.5
20260906014528 30 132 19.3 22.5 0.00 0.00 0.00 28 1009.2
20260906013028 31 136 17.7 22.5 0.00 0.00 0.00 27 1009.1
20260906011528 31 137 20.9 27.4 0.00 0.00 0.00 25 1009.1
20260906010027 32 132 14.5 20.9 0.00 0.00 0.00 24 1008.9
20260906004525 32 140 25.7 32.2 0.00 0.00 0.00 23 1008.8
20260906003026 33 130 22.5 35.4 0.00 0.00 0.00 21 1008.6
20260906001541 33 142 24.1 33.8 0.00 0.00 0.00 20 1008.4
20260906000025 33 146 22.5 29.0 0.00 0.00 0.00 20 1008.3
20260905234523 34 147 25.7 37.0 0.00 0.00 0.00 20 1008.2
20260905233024 34 123 20.9 32.2 0.00 0.00 0.00 20 1008.0
20260905231527 35 165 22.5 37.0 0.00 0.00 0.00 19 1007.9
20260905230023 34 155 19.3 33.8 0.00 0.00 0.00 20 1007.8
20260905224524 35 99 24.1 33.8 0.00 0.00 0.00 19 1007.7
20260905223038 34 110 19.3 33.8 0.00 0.00 0.00 19 1007.8
20260905221522 35 172 19.3 32.2 0.00 0.00 0.00 19 1007.9
20260905220018 34 196 11.3 33.8 0.00 0.00 0.00 21 1008.0
20260905214516 35 175 9.7 20.9 0.00 0.00 0.00 21 1008.1